| time (UTC) | temp F | wind direction | speed MPH | gust MPH | rain 1hr in | rain 24hr in | rain mn in | humidity % | barometer mb |
| 20260502223256 | 84 | 129 | 4.0 | 8.0 | 0.00 | 0.00 | 0.00 | 41 | 1007.0 |
| 20260502222256 | 82 | 104 | 1.0 | 7.0 | 0.00 | 0.00 | 0.00 | 41 | 1007.0 |
| 20260502221255 | 81 | 104 | 1.0 | 7.0 | 0.00 | 0.00 | 0.00 | 41 | 1007.0 |
| 20260502220255 | 83 | 104 | 1.0 | 7.0 | 0.00 | 0.00 | 0.00 | 41 | 1007.0 |
| 20260502215255 | 82 | 104 | 1.0 | 7.0 | 0.00 | 0.00 | 0.00 | 40 | 1007.0 |
| 20260502214254 | 84 | 104 | 1.0 | 7.0 | 0.00 | 0.00 | 0.00 | 40 | 1007.0 |
| 20260502213254 | 82 | 121 | 1.0 | 5.0 | 0.00 | 0.00 | 0.00 | 40 | 1007.0 |
| 20260502212254 | 84 | 121 | 1.0 | 6.0 | 0.00 | 0.00 | 0.00 | 40 | 1007.0 |
| 20260502211254 | 83 | 121 | 1.0 | 5.0 | 0.00 | 0.00 | 0.00 | 41 | 1007.0 |
| 20260502210253 | 83 | 121 | 1.0 | 5.0 | 0.00 | 0.00 | 0.00 | 41 | 1007.0 |
| 20260502205253 | 84 | 121 | 1.0 | 6.0 | 0.00 | 0.00 | 0.00 | 41 | 1007.0 |
| 20260502204253 | 83 | 121 | 1.0 | 5.0 | 0.00 | 0.00 | 0.00 | 41 | 1007.0 |
| 20260502203252 | 84 | 121 | 1.0 | 6.0 | 0.00 | 0.00 | 0.00 | 41 | 1007.0 |
| 20260502202252 | 84 | 104 | 2.0 | 5.0 | 0.00 | 0.00 | 0.00 | 41 | 1008.0 |
| 20260502201251 | 84 | 104 | 2.0 | 5.0 | 0.00 | 0.00 | 0.00 | 41 | 1008.0 |
| 20260502200251 | 84 | 104 | 2.0 | 5.0 | 0.00 | 0.00 | 0.00 | 41 | 1008.0 |
| 20260502195251 | 84 | 104 | 2.0 | 5.0 | 0.00 | 0.00 | 0.00 | 41 | 1008.0 |
| 20260502194250 | 84 | 104 | 1.0 | 5.0 | 0.00 | 0.00 | 0.00 | 41 | 1008.0 |
| 20260502193250 | 86 | 104 | 2.0 | 5.0 | 0.00 | 0.00 | 0.00 | 41 | 1008.0 |
| 20260502192250 | 80 | 77 | 4.0 | 6.0 | 0.00 | 0.00 | 0.00 | 45 | 1009.0 |
| 20260502191250 | 82 | 77 | 4.0 | 6.0 | 0.00 | 0.00 | 0.00 | 44 | 1009.0 |
| 20260502190250 | 82 | 77 | 4.0 | 6.0 | 0.00 | 0.00 | 0.00 | 44 | 1009.0 |
| 20260502185249 | 83 | 77 | 4.0 | 6.0 | 0.00 | 0.00 | 0.00 | 43 | 1009.0 |
| 20260502184249 | 82 | 77 | 4.0 | 5.0 | 0.00 | 0.00 | 0.00 | 44 | 1009.0 |
| 20260502183248 | 84 | 77 | 4.0 | 6.0 | 0.00 | 0.00 | 0.00 | 44 | 1009.0 |
| 20260502182249 | 79 | 60 | 6.0 | 7.0 | 0.00 | 0.00 | 0.00 | 50 | 1010.0 |
| 20260502181248 | 79 | 60 | 6.0 | 7.0 | 0.00 | 0.00 | 0.00 | 50 | 1010.0 |
| 20260502180247 | 80 | 60 | 6.0 | 7.0 | 0.00 | 0.00 | 0.00 | 50 | 1010.0 |
| 20260502170246 | 79 | 60 | 7.0 | 8.0 | 0.00 | 0.00 | 0.00 | 54 | 1011.0 |
| 20260502164245 | 79 | 60 | 7.0 | 8.0 | 0.00 | 0.00 | 0.00 | 55 | 1011.0 |
| 20260502163245 | 79 | 61 | 7.0 | 8.0 | 0.00 | 0.00 | 0.00 | 60 | 1011.0 |
| 20260502162244 | 81 | 61 | 7.0 | 8.0 | 0.00 | 0.00 | 0.00 | 62 | 1012.0 |
| 20260502161244 | 75 | 61 | 7.0 | 8.0 | 0.00 | 0.00 | 0.00 | 62 | 1012.0 |
| 20260502160244 | 76 | 61 | 7.0 | 8.0 | 0.00 | 0.00 | 0.00 | 62 | 1012.0 |
| 20260502152243 | 73 | 63 | 6.0 | 8.0 | 0.00 | 0.00 | 0.00 | 70 | 1012.0 |
| 20260502151242 | 74 | 63 | 6.0 | 8.0 | 0.00 | 0.00 | 0.00 | 70 | 1012.0 |
| 20260502150242 | 72 | 63 | 6.0 | 8.0 | 0.00 | 0.00 | 0.00 | 70 | 1012.0 |
| 20260502130238 | 68 | 68 | 4.0 | 10.0 | 0.00 | 0.00 | 0.00 | 83 | 1011.0 |
| 20260502123237 | 68 | 68 | 4.0 | 10.0 | 0.00 | 0.00 | 0.00 | 84 | 1012.0 |
| 20260502122237 | 67 | 84 | 3.0 | 10.0 | 0.00 | 0.00 | 0.00 | 84 | 1011.0 |
| 20260502121237 | 64 | 84 | 3.0 | 10.0 | 0.00 | 0.00 | 0.00 | 88 | 1011.0 |
| 20260502120236 | 66 | 84 | 3.0 | 10.0 | 0.00 | 0.00 | 0.00 | 88 | 1011.0 |
| 20260502115236 | 65 | 84 | 3.0 | 10.0 | 0.00 | 0.00 | 0.00 | 88 | 1011.0 |
| 20260502114236 | 66 | 84 | 3.0 | 10.0 | 0.00 | 0.00 | 0.00 | 88 | 1011.0 |
| 20260502113235 | 64 | 99 | 3.0 | 8.0 | 0.00 | 0.00 | 0.00 | 88 | 1011.0 |
| 20260502112235 | 66 | 99 | 3.0 | 8.0 | 0.00 | 0.00 | 0.00 | 88 | 1011.0 |
| 20260502111234 | 64 | 99 | 3.0 | 8.0 | 0.00 | 0.00 | 0.00 | 88 | 1011.0 |
| 20260502110234 | 66 | 99 | 3.0 | 8.0 | 0.00 | 0.00 | 0.00 | 88 | 1011.0 |
| 20260502105234 | 66 | 99 | 3.0 | 8.0 | 0.00 | 0.00 | 0.00 | 88 | 1011.0 |
| 20260502104234 | 64 | 99 | 3.0 | 8.0 | 0.00 | 0.00 | 0.00 | 87 | 1011.0 |
| 20260502103233 | 66 | 99 | 3.0 | 8.0 | 0.00 | 0.00 | 0.00 | 87 | 1011.0 |
| 20260502102233 | 64 | 98 | 3.0 | 8.0 | 0.00 | 0.00 | 0.00 | 88 | 1010.0 |
| 20260502101232 | 66 | 98 | 3.0 | 8.0 | 0.00 | 0.00 | 0.00 | 88 | 1010.0 |
| 20260502100232 | 68 | 98 | 3.0 | 8.0 | 0.00 | 0.00 | 0.00 | 88 | 1010.0 |
| 20260502091231 | 67 | 94 | 3.0 | 10.0 | 0.00 | 0.00 | 0.00 | 84 | 1010.0 |
| 20260502090231 | 67 | 94 | 3.0 | 10.0 | 0.00 | 0.00 | 0.00 | 84 | 1010.0 |
| 20260502071228 | 68 | 100 | 4.0 | 13.0 | 0.00 | 0.00 | 0.00 | 81 | 1011.0 |
| 20260502070227 | 70 | 100 | 4.0 | 13.0 | 0.00 | 0.00 | 0.00 | 81 | 1011.0 |
| 20260502065227 | 69 | 100 | 4.0 | 13.0 | 0.00 | 0.00 | 0.00 | 78 | 1011.0 |
| 20260502064227 | 70 | 100 | 4.0 | 13.0 | 0.00 | 0.00 | 0.00 | 77 | 1011.0 |
| 20260502063226 | 71 | 100 | 4.0 | 13.0 | 0.00 | 0.00 | 0.00 | 76 | 1010.0 |
| 20260502062226 | 67 | 98 | 4.0 | 13.0 | 0.00 | 0.00 | 0.00 | 78 | 1011.0 |
| 20260502061226 | 67 | 98 | 4.0 | 13.0 | 0.00 | 0.00 | 0.00 | 78 | 1011.0 |
| 20260502060226 | 68 | 98 | 4.0 | 13.0 | 0.00 | 0.00 | 0.00 | 78 | 1011.0 |
| 20260502055225 | 69 | 98 | 4.0 | 13.0 | 0.00 | 0.00 | 0.00 | 77 | 1011.0 |
| 20260502054225 | 70 | 98 | 4.0 | 13.0 | 0.00 | 0.00 | 0.00 | 76 | 1011.0 |
| 20260502053224 | 72 | 98 | 4.0 | 13.0 | 0.00 | 0.00 | 0.00 | 76 | 1011.0 |
| 20260502052224 | 69 | 97 | 5.0 | 14.0 | 0.00 | 0.00 | 0.00 | 77 | 1011.0 |
| 20260502051224 | 69 | 97 | 5.0 | 14.0 | 0.00 | 0.00 | 0.00 | 77 | 1011.0 |
| 20260502050223 | 67 | 97 | 5.0 | 14.0 | 0.00 | 0.00 | 0.00 | 76 | 1011.0 |
| 20260502045223 | 67 | 97 | 5.0 | 14.0 | 0.00 | 0.00 | 0.00 | 76 | 1011.0 |
| 20260502044223 | 69 | 97 | 5.0 | 14.0 | 0.00 | 0.00 | 0.00 | 76 | 1011.0 |
| 20260502043223 | 69 | 111 | 4.0 | 11.0 | 0.00 | 0.00 | 0.00 | 74 | 1011.0 |
| 20260502042222 | 71 | 111 | 4.0 | 12.0 | 0.00 | 0.00 | 0.00 | 73 | 1011.0 |
| 20260502041222 | 71 | 111 | 4.0 | 12.0 | 0.00 | 0.00 | 0.00 | 73 | 1011.0 |
| 20260502040222 | 69 | 111 | 4.0 | 11.0 | 0.00 | 0.00 | 0.00 | 74 | 1011.0 |
| 20260502035221 | 70 | 111 | 4.0 | 11.0 | 0.00 | 0.00 | 0.00 | 74 | 1011.0 |
| 20260502034221 | 71 | 111 | 4.0 | 12.0 | 0.00 | 0.00 | 0.00 | 74 | 1011.0 |
| 20260502033221 | 70 | 134 | 4.0 | 14.0 | 0.00 | 0.00 | 0.00 | 75 | 1011.0 |
| 20260502032221 | 71 | 134 | 4.0 | 14.0 | 0.00 | 0.00 | 0.00 | 75 | 1010.0 |
| 20260502031220 | 70 | 134 | 4.0 | 14.0 | 0.00 | 0.00 | 0.00 | 75 | 1010.0 |
| 20260502030220 | 71 | 134 | 4.0 | 14.0 | 0.00 | 0.00 | 0.00 | 75 | 1010.0 |
| 20260502025220 | 72 | 134 | 4.0 | 14.0 | 0.00 | 0.00 | 0.00 | 75 | 1010.0 |
| 20260502024220 | 70 | 134 | 4.0 | 14.0 | 0.00 | 0.00 | 0.00 | 77 | 1010.0 |
| 20260502023219 | 72 | 134 | 4.0 | 14.0 | 0.00 | 0.00 | 0.00 | 77 | 1010.0 |
| 20260502022219 | 70 | 131 | 4.0 | 15.0 | 0.00 | 0.00 | 0.00 | 78 | 1009.0 |
| 20260502021219 | 72 | 131 | 4.0 | 15.0 | 0.00 | 0.00 | 0.00 | 78 | 1009.0 |
| 20260502020218 | 70 | 131 | 4.0 | 15.0 | 0.00 | 0.00 | 0.00 | 76 | 1009.0 |
| 20260502015218 | 72 | 131 | 4.0 | 15.0 | 0.00 | 0.00 | 0.00 | 76 | 1009.0 |
| 20260502014218 | 71 | 129 | 3.0 | 11.0 | 0.00 | 0.00 | 0.00 | 72 | 1009.0 |
| 20260502013218 | 73 | 129 | 3.0 | 11.0 | 0.00 | 0.00 | 0.00 | 72 | 1008.0 |
| 20260502012217 | 73 | 129 | 3.0 | 11.0 | 0.00 | 0.00 | 0.00 | 72 | 1008.0 |
| 20260502011217 | 71 | 129 | 3.0 | 11.0 | 0.00 | 0.00 | 0.00 | 70 | 1008.0 |
| 20260502010217 | 73 | 129 | 3.0 | 11.0 | 0.00 | 0.00 | 0.00 | 70 | 1008.0 |
| 20260502005216 | 74 | 129 | 3.0 | 11.0 | 0.00 | 0.00 | 0.00 | 70 | 1008.0 |
| 20260502004216 | 73 | 129 | 3.0 | 11.0 | 0.00 | 0.00 | 0.00 | 70 | 1008.0 |
| 20260502003216 | 75 | 129 | 3.0 | 11.0 | 0.00 | 0.00 | 0.00 | 70 | 1008.0 |
| 20260502002215 | 74 | 129 | 3.0 | 10.0 | 0.00 | 0.00 | 0.00 | 60 | 1007.0 |
| 20260502001215 | 75 | 129 | 3.0 | 10.0 | 0.00 | 0.00 | 0.00 | 60 | 1007.0 |
| 20260502000215 | 77 | 129 | 3.0 | 10.0 | 0.00 | 0.00 | 0.00 | 60 | 1007.0 |
| 20260501235215 | 74 | 129 | 3.0 | 10.0 | 0.00 | 0.00 | 0.00 | 63 | 1007.0 |
| 20260501234214 | 75 | 129 | 3.0 | 10.0 | 0.00 | 0.00 | 0.00 | 63 | 1007.0 |
| 20260501233214 | 76 | 129 | 3.0 | 10.0 | 0.00 | 0.00 | 0.00 | 63 | 1007.0 |
| 20260501232214 | 76 | 94 | 6.0 | 12.0 | 0.00 | 0.00 | 0.00 | 53 | 1007.0 |
| 20260501231213 | 76 | 94 | 6.0 | 12.0 | 0.00 | 0.00 | 0.00 | 50 | 1007.0 |
| 20260501230213 | 77 | 94 | 6.0 | 12.0 | 0.00 | 0.00 | 0.00 | 50 | 1007.0 |
| 20260501225213 | 76 | 94 | 5.0 | 11.0 | 0.00 | 0.00 | 0.00 | 49 | 1007.0 |
| 20260501224212 | 78 | 94 | 6.0 | 12.0 | 0.00 | 0.00 | 0.00 | 49 | 1007.0 |